{"data":{"norad_id":69717,"intl_designator":"2026-147P","name":"STARLINK-38040","alt_names":[],"object_type":"PAYLOAD","status":"ACTIVE","operator":null,"country":"US","launch_date":"2026-06-28","launch_site_code":"AFWTR","launch_vehicle":null,"mission":null,"orbit_class":"UNKNOWN","rcs_meters":null,"size_class":null,"mass_kg":null,"dimensions":null,"purposes":["comms"],"wikipedia_slug":null,"has_3d_model":false,"image_url":null,"decayed_at":null,"tle_current":{"epoch":"2026-09-20T00:55:57.107424Z","epoch_age_seconds":61477,"freshness":"FRESH","line1":"1 69717U 26147P   26263.03885541  .00012820  00000+0  39857-3 0  9990","line2":"2 69717  97.2847 299.4132 0001528  94.3667 265.7751 15.33459378 14163","mean_motion":15.33459378,"eccentricity":0.0001528,"inclination_deg":97.2847,"raan_deg":299.4132,"arg_perigee_deg":94.3667,"mean_anomaly_deg":265.7751,"bstar":0.00039857,"rev_number":1416,"period_min":93.905324174815,"perigee_km":464.45468820606,"apogee_km":466.54610379428,"semimajor_km":6843.6373960002,"source":"CELESTRAK","updated_at":"2026-09-20T09:00:44.283465Z"}}}